Location: Katowice
(50.2611°N, 19.0242°E)
Time: 00:15:26
(UTC+02:00)

Tiros 1 - Pass Details

Date: 28 August 2019
Orbit: 630 x 664 km, 48.4° (Epoch: 20 September)

Event Time Altitude Azimuth Distance (km) Brightness Sun altitude
Exits shadow 04:00:11 31° 229° (SW) 1,122 7.8 -16.5°
Maximum altitude 04:00:57 33° 209° (SSW) 1,076 7.8 -16.4°
Drops below altitude 10° 04:05:07 10° 145° (SE) 2,030 9.7 -15.9°
Sets 04:07:38 0° 136° (SE) 2,943 10.6 -15.6°
